Location: Newark
(34.9500°N, 139.9667°E)
Time: 17:47:40
(UTC+00:00)

Transit 2A - Pass Details

Date: 12 December 2019
Orbit: 601 x 958 km, 66.7° (Epoch: 28 January)

Event Time Altitude Azimuth Distance (km) Brightness Sun altitude
Rises 06:04:22 0° 339° (NNW) 2,885 8.8 13.5°
Reaches altitude 10° 06:06:37 10° 344° (NNW) 2,002 8.0 13.1°
Maximum altitude 06:11:00 51° 61° (ENE) 826 6.0 12.4°
Drops below altitude 10° 06:15:42 10° 137° (SE) 2,155 8.4 11.7°
Sets 06:18:12 0° 143° (SE) 3,128 9.2 11.3°
